Simultaneous Nadir Overpasses (SNOs) Predictions

Prediction of SNOs between LANDSAT-8 and METOP-B Satellite Orbit:

Table of predicted SNOs for the next 14.0 days since TLE Epoch: 10/30/2021
Index Date (LANDSAT-8) Time (LANDSAT-8) Lat,Lon (LANDSAT-8) SZA (LANDSAT-8 ) Date (METOP-B) Time (METOP-B) Lat,Lon (METOP-B) SZA (METOP-B ) Distance(km) Time Diff (sec)
1 10/30/2021 15:21:33 -81.12, 169.59 82.50 10/30/2021 15:20:26 -81.11, 169.43 82.55 2.91 67
2 10/30/2021 16:10:59 81.13, -22.64 97.54 10/30/2021 16:11:05 81.13, -22.75 97.53 1.89 6
3 11/02/2021 10:55:47 -81.12,-124.03 81.61 11/02/2021 10:54:47 -81.12,-123.89 81.62 2.43 60
4 11/02/2021 11:45:12 81.15, 44.07 98.48 11/02/2021 11:45:26 81.14, 43.91 98.46 2.90 14
5 11/05/2021 06:30:01 -81.13, -57.37 80.71 11/05/2021 06:29:09 -81.13, -57.25 80.72 2.06 52
6 11/05/2021 07:19:27 81.14, 110.33 99.31 11/05/2021 07:19:49 81.14, 110.16 99.30 2.92 22
7 11/08/2021 02:04:16 -81.12, 8.85 79.92 11/08/2021 02:03:32 -81.13, 8.98 79.92 2.47 44
8 11/08/2021 02:53:41 81.15, 176.89 100.15 11/08/2021 02:54:11 81.14, 176.77 100.15 2.05 30
9 11/10/2021 21:38:29 -81.12, 75.35 79.13 11/10/2021 21:37:54 -81.12, 75.19 79.16 2.83 35



Historial Predications of SNOs between LANDSAT-8 and METOP-B
